Tracking 19969 objects as of 13-Nov-2019
Live streaming from Space Station
objects crossing your sky now
Track the group of recently launched Starlink satellites

ARIANE 5 DEB (SYLDA)


ARIANE 5 DEB (SYLDA) is no longer on orbit


NORAD ID: 37608
Int'l Code: 2011-022D
Perigee: N/A
Apogee: N/A
Inclination: N/A
Period: N/A
Semi major axis: N/A
RCS: N/A
Launch date: May 20, 2011
Source: France (FR)
Launch site: FRENCH GUIANA (FRGUI)
Decay date: 2013-01-21

Note: This is SATELLITE DEBRIS
aabbcc
Your satellite tracking list
Your tracking list is empty




NASA's NSSDC Master Catalog

Two Line Element Set (TLE):
1 37608U 11022D   13021.50954065  .53067963 -34434-4  16539-2 0  9999
2 37608 002.2170 307.8456 0250049 313.9774 226.5937 15.94080507 29481
Source of the keplerian elements: AFSPC